Regional Weather Roundup
Issued by NWS

Home | Current Version | Previous Version | Text Only | Print | Product List | Glossary On
Versions: 1 2 3 4 5 6 7 8 9 10 11 12 13 14 15 16 17 18 19 20 21 22 23 24 25 26 27 28 29 30 31 32 33 34 35 36 37 38 39 40 41 42 43 44 45 46 47 48 49 50
000
ASHW40 PHFO 012330
RWRHI

WEATHER ROUNDUP FOR HAWAII
NATIONAL WEATHER SERVICE HONOLULU HI
100 PM HST WED JUL 01 2015

THIS IS AN AUTOMATED REPORT THAT HAS NOT BEEN QUALITY CONTROLLED.

NOTE..."FAIR" INDICATES FEW OR NO CLOUDS BELOW 12,000 FEET WITH NO
SIGNIFICANT WEATHER AND/OR OBSTRUCTIONS TO VISIBILITY.

* - THESE SITES REPORT LIMITED FIELDS

HIZ001>004-020000-
KAUAI-NIIHAU-

CITY           SKY/WX    TMP DP  RH WIND       PRES   REMARKS
LIHUE APT      MOSUNNY   87  68  52 SW10G22   29.88F HX  90
PORT ALLEN*    NOT AVBL
POIPU*           N/A     82 N/A N/A S9G15       N/A
PRINCEVILLE*     N/A     82 N/A N/A MISG        N/A
KOKOLE POINT*  NOT AVBL
MOLOAA DAIRY*  NOT AVBL
WAIMEA HTS*    NOT AVBL
PUU OPAE*      NOT AVBL
PUU LUA*       NOT AVBL
MAKAHA RIDGE*    N/A     79  68  69 W6G12       N/A
$$

HIZ005>011-020000-
OAHU-

CITY           SKY/WX    TMP DP  RH WIND       PRES   REMARKS
HONOLULU       MOSUNNY   85  69  58 S9        29.89F
KALAELOA       SUNNY     83  71  67 SW10      29.90F
KANEOHE MCB    SUNNY     85  70  60 NE9       29.87F
WHEELER FIELD  PTSUNNY   85  65  52 VRB6      29.89F
BELLOWS*         N/A    N/A N/A N/A E7          N/A
KAHUKU*          N/A    N/A N/A N/A N3G9        N/A
WHEELER*       NOT AVBL
WAIANAE HARBOR NOT AVBL
DILLINGHAM*      N/A     97  70  41 MISG        N/A  HX 103
KAHUKU TRN*      N/A     70  55  60 VRB3G12     N/A
KAWAILOA*        N/A     84  68  58 NW5G12      N/A
KII*             N/A     82  72  69 NE7         N/A
MAKUA RANGE*     N/A     82  70  65 W6          N/A
OAHU FOREST NW NOT AVBL
SCHOFIELD BRK*   N/A     63  48  59 MISG        N/A
SCHOFIELD S*   NOT AVBL
WAIANAE VLY*   NOT AVBL
KUAOKALA*      NOT AVBL
HONOULIUULI*   NOT AVBL
MOKUOLOE IS*   NOT AVBL
PALEHUA*       NOT AVBL
WAIAWA PHB*    NOT AVBL
$$

HIZ012>013-020000-
MOLOKAI-

CITY           SKY/WX    TMP DP  RH WIND       PRES   REMARKS
MOLOKAI AIRPT  MOSUNNY   85  68  56 N12       29.92F
KALAUPAPA      NOT AVBL
MAKAPULAPAI*   NOT AVBL
MOLOKAI 1*     NOT AVBL
PUU ALII*        N/A     68  66  92 NW1         N/A
$$

HIZ016-020000-
KAHOOLAWE-

CITY           SKY/WX    TMP DP  RH WIND       PRES   REMARKS
KAHOOLAWE*     NOT AVBL
HAKIOAWA*        N/A     82  71  69 MISG      30.33F
HONOKANAIA*      N/A     86  72  63 E12G18    29.91F HX  92
KANELOA*         N/A     82  72  69 E15       29.99S
KEALIALALO*      N/A     84  72  65 NW7G14      N/A
LUA MAKIKA*    NOT AVBL
$$

HIZ014>015-020000-
LANAI-

CITY           SKY/WX    TMP DP  RH WIND       PRES   REMARKS
LANAI CITY     PTSUNNY   78  69  73 NW10      29.96F
LANAI 1*       NOT AVBL
$$

HIZ017>028-020000-
MAUI-

CITY           SKY/WX    TMP DP  RH WIND       PRES   REMARKS
KAHULUI        MOSUNNY   89  69  51 N10       29.89F HX  93
KAPALUA-W MAUI MOSUNNY   88  72  58 N14       29.91F HX  94
HANA AIRPORT   PTSUNNY   84  73  70 E12       29.92F HX  91
HANA*            N/A     84 N/A N/A E9G15       N/A
HALEAKALA SUMM   N/A     61  30  31 SE9         N/A
MAALAEA BAY*   NOT AVBL
HALEAKALA*     NOT AVBL
KAUPO GAP*     NOT AVBL
KULA 1*          N/A     64  59  85 NW5G10      N/A
$$

HIZ023>026-020000-
BIG ISLAND OF HAWAII COAST AND LOWER SLOPES-

CITY           SKY/WX    TMP DP  RH WIND       PRES   REMARKS
KAILUA KONA    MOSUNNY   86  73  65 SW9       29.87F HX  93
HILO           PTSUNNY   85  71  63 E10       29.90F HX  90
HONOKAA*       NOT AVBL
KAWAIHAE MWT*    N/A     90 N/A N/A W6          N/A
KAWAIHAE*        N/A     82 N/A N/A SW8         N/A
SOUTH POINT*     N/A     82 N/A N/A E14G22      N/A
UPOLU AIRPORT*   N/A    N/A N/A N/A NE17G24     N/A
KAMUELA*       CLOUDY    82  66  57 W10       30.00F
HAKALAU*         N/A     68  58  70 E6G13       N/A
KALOKO-HONOKO*   N/A     86  72  62 SW8       29.86F HX  92
PALI 2*          N/A     72  66  83 SE12        N/A
KEALAKOMO*       N/A     88  75  66 E13         N/A  HX  97
KAUPULEHU*     NOT AVBL
KAPAPALA*        N/A     80  71  73 E5G12       N/A
LOWER KAHUKU*    N/A     73  68  83 E3G12       N/A
PUHE CS*         N/A     86  72  62 W5          N/A  HX  92
PUHO CS*         N/A     86  69  57 SW3G9       N/A  HX  90
PTA KEAMUKU*     N/A     79  66  65 CALM        N/A
WAIKOLOA*      NOT AVBL
$$

HIZ027>028-020000-
BIG ISLAND OF HAWAII INTERIOR AND SUMMMITS-

CITY           SKY/WX    TMP DP  RH WIND       PRES   REMARKS
BRADSHAW FIELD MOSUNNY   72  56  56 W12G21    30.25F
MK VISITOR CEN   N/A      0   0 100 MISG        N/A
MAUNA KEA*       N/A     45  37  76 SE10G23     N/A
MAUNA LOA*       N/A     48  45  87 MISG        N/A
MAUNA LOA 1*   NOT AVBL
PTA KIPUKA*      N/A     73  59  60 NW8G15      N/A
PTA RANGE 17*    N/A     54  41  62 NW10G18     N/A
PTA WEST*        N/A     79  68  69 NW10G17     N/A
NENE CABIN*      N/A     64  55  72 SE6G14      N/A
AHUMOA*        NOT AVBL
PTA PORTABLE*  NOT AVBL
PUU MALI*        N/A     64  63  94 E6          N/A
$$

HIC003-020000-
NORTHWEST ISLANDS-

CITY           SKY/WX    TMP DP  RH WIND       PRES   REMARKS
MIDWAY ISLAND  SUNNY     82  72  69 NE10G18   30.07S
MIDWAY NOS*    NOT AVBL
FRENCH FRIGATE NOT AVBL
$$

PHZ110>124-180-020000-
BUOY REPORTS

STATION/POSITION TIME  TEMP    WIND        PRES    WAVE   SWELL
                       AIR SEA DIR/SP/G            HT/PER HT/DIR
                 (UTC) (F)     (DEG/KT/KT) (MB)    (FT/S) (FT/D)
BUOY 51001       NOT AVBL
BUOY 51101       2300   75 80  280/ 14/ 16 1010.7F   6/ 8   5/320
BUOY 51100       NOT AVBL
BUOY 51002       2300   80 81   60/ 14/ 16 1011.0F   7/14   7/190
BUOY 51003       2300   80 82  110/  6/  8 1012.4F   6/ 9   7
BUOY 51004       2223   80 80   70/ 16/ 17 1011.5F   8/ 8   7/ 90
BARBERS PT BUOY  NOT AVBL
WAIMEA BAY BUOY  2300      81                N/A     2/ 8
KAILUA BAY BUOY  2300      81                N/A     3/15   2/140
LANAI BUOY       NOT AVBL
BARBERS PT 2     2300      82                N/A     4/15   3/180
PAUWELA MAUI     2300      80                N/A     4/ 8
HILO             2300      80                N/A     6/ 9   2/110
KANEOHE BAY BUOY 2300      81                N/A     3/ 8
HANALEI KAUAI    2300      81                N/A     3/ 9
KAHULUI HARBOR   2300   81 81  350/  6/ 10 1012.1F
HONOLULU HARBOR  2300   81 81  210/  6/ 10 1012.3F
KILO NALU        NOT AVBL
HILO HARBOR      2300   92 78  150/  9/ 12 1012.0F
MOKUOLOE         2300   81 83   20/  6/ 11 1012.6S
NAWILIWILI       2300   81 80  190/ 18/ 20 1011.2F
WHOTS BUOY       NOT AVBL
BUOY 51028       NOT AVBL
$$

......................KEY........................................
  SKY/WX - SKY CONDITIONS/PRESENT WEATHER
  TMP    - TEMPERATURE IN FAHRENHEIT
  DWPT   - DEWPOINT IN FAHRENHEIT
  RH     - RELATIVE HUMIDITY IN PERCENT
  WIND   - DIRECTION AND SPEED /MPH FOR ISLANDS...KTS FOR BUOYS/
  PRES   - MEAN SEA LEVEL PRESSURE IN INCHES OF HG
  VSB    - VISIBILITY IN MILES
  HX     - HEAT INDEX
  WCI    - WIND CHILL INDEX
  VRB    - VARIABLE WIND DIRECTION
  N/A    - NOT AVAILABLE


USA.gov is the U.S. government's official web portal to all federal, state and local government web resources and services.